Time,TemperatureF,DewpointF,PressureIn,WindDirection,WindDirectionDegrees,WindSpeedMPH,WindSpeedGustMPH,Humidity,HourlyPrecipIn,Conditions,Clouds,dailyrainin,SoftwareType,DateUTC
2013-01-11 00:04:00,29.0,23.0,-100.00,NNW,340,0.0,5.0,78,-99.99,,,-99.99,,2013-01-11 05:04:00,
2013-01-11 01:32:00,30.0,22.0,-100.00,SW,225,1.0,5.0,72,-99.99,,,-99.99,,2013-01-11 06:32:00,
2013-01-11 01:42:00,30.0,23.0,-100.00,West,260,0.0,5.0,73,-99.99,,,-99.99,,2013-01-11 06:42:00,
2013-01-11 01:52:00,28.0,22.0,-100.00,West,275,1.0,3.0,78,-99.99,,,-99.99,,2013-01-11 06:52:00,
2013-01-11 02:02:00,27.0,22.0,-100.00,South,175,0.0,5.0,80,-99.99,,,-99.99,,2013-01-11 07:02:00,
2013-01-11 02:12:00,27.0,22.0,-100.00,West,260,2.0,5.0,81,-99.99,,,-99.99,,2013-01-11 07:12:00,
2013-01-11 02:22:00,27.0,23.0,-100.00,West,275,1.0,8.0,82,-99.99,,,-99.99,,2013-01-11 07:22:00,
2013-01-11 02:32:00,30.0,23.0,-100.00,NNE,15,1.0,8.0,75,-99.99,,,-99.99,,2013-01-11 07:32:00,
2013-01-11 02:42:00,29.0,22.0,-100.00,North,355,1.0,5.0,76,-99.99,,,-99.99,,2013-01-11 07:42:00,
2013-01-11 02:52:00,29.0,22.0,-100.00,NNW,330,2.0,6.0,76,-99.99,,,-99.99,,2013-01-11 07:52:00,
2013-01-11 03:02:00,29.0,22.0,-100.00,NNE,30,1.0,6.0,74,-99.99,,,-99.99,,2013-01-11 08:02:00,
2013-01-11 03:12:00,29.0,22.0,-100.00,NNW,330,2.0,6.0,75,-99.99,,,-99.99,,2013-01-11 08:12:00,
2013-01-11 03:22:00,28.0,22.0,-100.00,ENE,75,1.0,3.0,78,-99.99,,,-99.99,,2013-01-11 08:22:00,
2013-01-11 03:32:00,28.0,22.0,-100.00,WNW,285,2.0,2.0,80,-99.99,,,-99.99,,2013-01-11 08:32:00,
2013-01-11 03:42:00,27.0,22.0,-100.00,West,280,2.0,3.0,80,-99.99,,,-99.99,,2013-01-11 08:42:00,
2013-01-11 03:52:00,27.0,22.0,-100.00,West,265,2.0,5.0,81,-99.99,,,-99.99,,2013-01-11 08:52:00,
2013-01-11 04:02:00,27.0,22.0,-100.00,North,0,0.0,5.0,82,-99.99,,,-99.99,,2013-01-11 09:02:00,
2013-01-11 04:12:00,27.0,22.0,-100.00,NE,35,1.0,3.0,82,-99.99,,,-99.99,,2013-01-11 09:12:00,
2013-01-11 04:23:00,26.0,22.0,-100.00,WSW,245,2.0,3.0,83,-99.99,,,-99.99,,2013-01-11 09:23:00,
2013-01-11 04:32:00,26.0,21.0,-100.00,WNW,285,1.0,5.0,84,-99.99,,,-99.99,,2013-01-11 09:32:00,
2013-01-11 04:42:00,25.0,22.0,-100.00,North,0,0.0,3.0,86,-99.99,,,-99.99,,2013-01-11 09:42:00,
2013-01-11 04:52:00,25.0,22.0,-100.00,WNW,300,2.0,5.0,87,-99.99,,,-99.99,,2013-01-11 09:52:00,
2013-01-11 05:02:00,25.0,22.0,-100.00,WNW,300,2.0,5.0,87,-99.99,,,-99.99,,2013-01-11 10:02:00,
2013-01-11 05:32:00,25.0,21.0,-100.00,West,280,2.0,5.0,87,-99.99,,,-99.99,,2013-01-11 10:32:00,
2013-01-11 06:53:00,25.0,22.0,-100.00,NE,35,2.0,3.0,89,-99.99,,,-99.99,,2013-01-11 11:53:00,
2013-01-11 07:03:00,25.0,22.0,-100.00,North,10,1.0,2.0,88,-99.99,,,-99.99,,2013-01-11 12:03:00,
2013-01-11 07:12:00,25.0,22.0,-100.00,North,10,1.0,2.0,88,-99.99,,,-99.99,,2013-01-11 12:12:00,
2013-01-11 07:23:00,26.0,22.0,-100.00,NW,320,1.0,2.0,88,-99.99,,,-99.99,,2013-01-11 12:23:00,
2013-01-11 07:33:00,26.0,23.0,-100.00,NE,40,3.0,6.0,87,-99.99,,,-99.99,,2013-01-11 12:33:00,
2013-01-11 07:43:00,25.0,22.0,-100.00,NNW,340,2.0,5.0,87,-99.99,,,-99.99,,2013-01-11 12:43:00,
2013-01-11 07:52:00,25.0,22.0,-100.00,SSW,210,1.0,2.0,87,-99.99,,,-99.99,,2013-01-11 12:52:00,
2013-01-11 08:03:00,25.0,22.0,-100.00,West,280,0.0,2.0,87,-99.99,,,-99.99,,2013-01-11 13:03:00,
2013-01-11 08:13:00,25.0,22.0,-100.00,NNE,30,1.0,3.0,88,-99.99,,,-99.99,,2013-01-11 13:13:00,
2013-01-11 08:22:00,26.0,22.0,-100.00,NNE,20,1.0,2.0,88,-99.99,,,-99.99,,2013-01-11 13:22:00,
2013-01-11 08:33:00,26.0,22.0,-100.00,NE,50,1.0,3.0,86,-99.99,,,-99.99,,2013-01-11 13:33:00,
2013-01-11 08:43:00,26.0,22.0,-100.00,NNE,15,1.0,3.0,86,-99.99,,,-99.99,,2013-01-11 13:43:00,
2013-01-11 08:52:00,27.0,23.0,-100.00,NNE,25,1.0,2.0,86,-99.99,,,-99.99,,2013-01-11 13:52:00,
2013-01-11 09:03:00,27.0,23.0,-100.00,NNW,340,1.0,2.0,84,-99.99,,,-99.99,,2013-01-11 14:03:00,
2013-01-11 09:12:00,28.0,24.0,-100.00,WSW,245,1.0,2.0,83,-99.99,,,-99.99,,2013-01-11 14:12:00,
2013-01-11 09:23:00,29.0,24.0,-100.00,West,270,0.0,2.0,82,-99.99,,,-99.99,,2013-01-11 14:23:00,
2013-01-11 09:33:00,29.0,24.0,-100.00,NE,45,0.0,2.0,81,-99.99,,,-99.99,,2013-01-11 14:33:00,
2013-01-11 09:43:00,31.0,24.0,-100.00,North,0,2.0,5.0,75,-99.99,,,-99.99,,2013-01-11 14:43:00,
2013-01-11 09:53:00,32.0,24.0,-100.00,North,5,5.0,7.0,71,-99.99,,,-99.99,,2013-01-11 14:53:00,
2013-01-11 10:03:00,33.0,25.0,-100.00,NNE,15,3.0,6.0,70,-99.99,,,-99.99,,2013-01-11 15:03:00,
2013-01-11 10:13:00,35.0,26.0,-100.00,North,350,2.0,6.0,68,-99.99,,,-99.99,,2013-01-11 15:13:00,
2013-01-11 10:23:00,36.0,25.0,-100.00,North,0,2.0,5.0,65,-99.99,,,-99.99,,2013-01-11 15:23:00,
2013-01-11 13:04:00,38.0,30.0,-100.00,ENE,75,5.0,8.0,72,-99.99,,,-99.99,,2013-01-11 18:04:00,
2013-01-11 13:13:00,38.0,30.0,-100.00,NNE,30,3.0,7.0,72,-99.99,,,-99.99,,2013-01-11 18:13:00,
2013-01-11 13:23:00,39.0,30.0,-100.00,NNW,330,2.0,7.0,72,-99.99,,,-99.99,,2013-01-11 18:23:00,
2013-01-11 13:33:00,39.0,30.0,-100.00,East,80,5.0,7.0,71,-99.99,,,-99.99,,2013-01-11 18:33:00,
2013-01-11 13:43:00,39.0,30.0,-100.00,ENE,65,2.0,6.0,71,-99.99,,,-99.99,,2013-01-11 18:43:00,
2013-01-11 13:53:00,39.0,30.0,-100.00,East,85,1.0,5.0,70,-99.99,,,-99.99,,2013-01-11 18:53:00,
2013-01-11 14:03:00,38.0,30.0,-100.00,NW,305,1.0,3.0,71,-99.99,,,-99.99,,2013-01-11 19:03:00,
2013-01-11 14:13:00,38.0,30.0,-100.00,NW,305,1.0,3.0,71,-99.99,,,-99.99,,2013-01-11 19:13:00,
2013-01-11 15:33:00,39.0,29.0,-100.00,SW,230,2.0,3.0,68,-99.99,,,-99.99,,2013-01-11 20:33:00,
2013-01-11 16:30:00,39.0,30.0,-100.00,ESE,110,2.0,5.0,71,-99.99,,,-99.99,,2013-01-11 21:30:00,
2013-01-11 17:12:00,39.0,30.0,-100.00,ESE,110,2.0,5.0,71,-99.99,,,-99.99,,2013-01-11 22:12:00,
2013-01-11 17:20:00,38.0,31.0,-100.00,WSW,250,1.0,3.0,75,-99.99,,,-99.99,,2013-01-11 22:20:00,
2013-01-11 17:23:00,39.0,30.0,-100.00,ESE,110,2.0,5.0,71,-99.99,,,-99.99,,2013-01-11 22:23:00,
2013-01-11 17:43:00,38.0,31.0,-100.00,ESE,115,1.0,3.0,73,-99.99,,,-99.99,,2013-01-11 22:43:00,
2013-01-11 17:53:00,38.0,31.0,-100.00,ESE,115,1.0,3.0,73,-99.99,,,-99.99,,2013-01-11 22:53:00,
2013-01-11 18:03:00,38.0,31.0,-100.00,WSW,250,1.0,3.0,75,-99.99,,,-99.99,,2013-01-11 23:03:00,
2013-01-11 18:13:00,38.0,31.0,-100.00,WSW,250,1.0,3.0,75,-99.99,,,-99.99,,2013-01-11 23:13:00,
2013-01-11 18:33:00,39.0,31.0,-100.00,South,175,0.0,2.0,75,-99.99,,,-99.99,,2013-01-11 23:33:00,
2013-01-11 18:43:00,38.0,31.0,-100.00,West,265,0.0,3.0,75,-99.99,,,-99.99,,2013-01-11 23:43:00,
2013-01-11 20:12:00,38.0,34.0,-100.00,SSE,155,1.0,3.0,86,-99.99,,,-99.99,,2013-01-12 01:12:00,
2013-01-11 20:22:00,38.0,34.0,-100.00,East,95,1.0,2.0,86,-99.99,,,-99.99,,2013-01-12 01:22:00,
2013-01-11 20:33:00,37.0,34.0,-100.00,WSW,240,1.0,2.0,87,-99.99,,,-99.99,,2013-01-12 01:33:00,
2013-01-11 20:43:00,37.0,34.0,-100.00,SE,125,2.0,5.0,89,-99.99,,,-99.99,,2013-01-12 01:43:00,
2013-01-11 20:52:00,37.0,34.0,-100.00,SE,125,2.0,6.0,90,-99.99,,,-99.99,,2013-01-12 01:52:00,
2013-01-11 21:02:00,37.0,35.0,-100.00,East,100,1.0,6.0,90,-99.99,,,-99.99,,2013-01-12 02:02:00,
2013-01-11 21:12:00,37.0,35.0,-100.00,East,100,5.0,7.0,91,-99.99,,,-99.99,,2013-01-12 02:12:00,
2013-01-11 21:22:00,37.0,35.0,-100.00,WSW,245,1.0,5.0,91,-99.99,,,-99.99,,2013-01-12 02:22:00,
2013-01-11 21:33:00,37.0,35.0,-100.00,ESE,110,2.0,3.0,92,-99.99,,,-99.99,,2013-01-12 02:33:00,
2013-01-11 21:43:00,37.0,35.0,-100.00,East,100,2.0,5.0,93,-99.99,,,-99.99,,2013-01-12 02:43:00,
2013-01-11 21:53:00,37.0,36.0,-100.00,East,90,2.0,5.0,95,-99.99,,,-99.99,,2013-01-12 02:53:00,
2013-01-11 22:03:00,37.0,36.0,-100.00,ESE,105,2.0,5.0,95,-99.99,,,-99.99,,2013-01-12 03:03:00,
2013-01-11 22:12:00,37.0,36.0,-100.00,SE,135,2.0,5.0,95,-99.99,,,-99.99,,2013-01-12 03:12:00,
2013-01-11 22:22:00,37.0,36.0,-100.00,South,180,1.0,2.0,95,-99.99,,,-99.99,,2013-01-12 03:22:00,
2013-01-11 22:33:00,37.0,36.0,-100.00,East,100,1.0,3.0,96,-99.99,,,-99.99,,2013-01-12 03:33:00,
2013-01-11 22:43:00,37.0,37.0,-100.00,SE,135,2.0,8.0,97,-99.99,,,-99.99,,2013-01-12 03:43:00,
2013-01-11 22:53:00,38.0,37.0,-100.00,SSE,150,2.0,6.0,97,-99.99,,,-99.99,,2013-01-12 03:53:00,
2013-01-11 23:03:00,38.0,37.0,-100.00,SSE,150,2.0,6.0,97,-99.99,,,-99.99,,2013-01-12 04:03:00,
2013-01-11 23:12:00,38.0,37.0,-100.00,ESE,120,3.0,8.0,97,-99.99,,,-99.99,,2013-01-12 04:12:00,
2013-01-11 23:22:00,38.0,37.0,-100.00,ESE,120,3.0,8.0,97,-99.99,,,-99.99,,2013-01-12 04:22:00,